Retour au catalogue

LEMUR-2-ELEONORE

ActifScienceSSO
NORAD 69940·PAYLOAD·🇺🇸 United States

Lancé Jul 7, 2026 depuis Vandenberg Space Force Base

Loading…

Prochains Passages (prochaines 24 heures)

TLE

FraisSource: Space-Track

Époque: Sep 14, 2026, 15:47 UTC

1 69940U 26156BZ  26257.65777260  .00001142  00000-0  11607-3 0  9996
2 69940  97.7478 157.0627 0008920 290.1742  69.8517 14.92712606 10346

Suivez LEMUR-2-ELEONORE en temps réel avec AllMySat

Download on the App Store